Weather History for Ironwood, MI

Change the Weather History Date:

Tuesday, September 4, 2012

  Actual Average Record
Temperature  
Mean Temperature 66 °F -  
Max Temperature 87 °F 70 °F 89 °F (1998)
Min Temperature 46 °F 51 °F 33 °F (1997)
Cooling Degree Days 2    
Growing Degree Days 16 (Base 50)    
Moisture  
Dew Point 56 °F    
Average Humidity 59    
Maximum Humidity 87    
Minimum Humidity 33    
Precipitation  
Precipitation 0.00 in - - ()
Sea Level Pressure  
Sea Level Pressure 29.77 in    
Wind  
Wind Speed 5 mph (South)    
Max Wind Speed 14 mph    
Max Gust Speed 23 mph    
Visibility 10 miles    
Events Thunderstorm    
Averages and records for this station are not official NWS values.
T = Trace of Precipitation, MM = Missing Value Source: NWS Daily Summary

Daily Weather History Graph

Daily Weather History Graph

Search for Another Location

Airport:

Trip Planner

Search our weather history database for the weather conditions in past years. The results will help you decide how hot, cold, wet, or windy it might be!

Date:

Astronomy

Sep. 04, 2012 Rise Set
Actual Time 6:25 AM CDT 7:32 PM CDT
Civil Twilight 5:54 AM CDT 8:03 PM CDT
Nautical Twilight 5:16 AM CDT 8:40 PM CDT
Astronomical Twilight 4:37 AM CDT 9:19 PM CDT
Moon 9:05 PM CDT (9/4) 10:51 AM CDT (9/4)
Length of Visible Light 14h 09m
Length of Day
13h 07m
Waning Gibbous, 83% of the Moon is Illuminated
Sep 4
Waning Gibbous
Sep 8
Last Quarter
Sep 15
New
Sep 22
First Quarter
Sep 29
Full

Hourly Weather History & Observations

Time (CDT) Temp. Heat Index Dew Point Humidity Pressure Visibility Wind Dir Wind Speed Gust Speed Precip Events Conditions
6:55 AM 48.2 °F - 42.8 °F 82% 29.89 in 10.0 mi Calm Calm - N/A   Clear
7:15 AM 46.4 °F - 42.8 °F 87% 29.89 in 10.0 mi Calm Calm - N/A   Clear
7:35 AM 48.2 °F - 42.8 °F 82% 29.89 in 10.0 mi Calm Calm - N/A   Clear
7:55 AM 53.6 °F - 46.4 °F 77% 29.88 in 10.0 mi East 3.5 mph - N/A   Clear
8:35 AM 60.8 °F - 51.8 °F 72% 29.88 in 10.0 mi ESE 3.5 mph - N/A   Clear
10:55 AM 78.8 °F - 57.2 °F 47% 29.86 in 10.0 mi SSE 6.9 mph - N/A   Clear
11:15 AM 80.6 °F 81.1 °F 59.0 °F 48% 29.86 in 10.0 mi South 8.1 mph - N/A   Clear
3:55 PM 86.0 °F 84.5 °F 55.4 °F 35% 29.75 in 10.0 mi SSW 8.1 mph - N/A   Scattered Clouds
4:15 PM 82.4 °F 82.0 °F 57.2 °F 42% 29.75 in 10.0 mi SSW 6.9 mph 23.0 mph N/A   Scattered Clouds
4:35 PM 86.0 °F 86.1 °F 60.8 °F 43% 29.74 in 10.0 mi South 8.1 mph - N/A   Scattered Clouds
4:55 PM 86.0 °F 84.9 °F 57.2 °F 37% 29.72 in 10.0 mi SSW 9.2 mph - N/A   Partly Cloudy
5:15 PM 87.8 °F 86.5 °F 57.2 °F 35% 29.73 in 10.0 mi SSW 6.9 mph - N/A   Partly Cloudy
5:35 PM 87.8 °F 86.1 °F 55.4 °F 33% 29.72 in 10.0 mi SSW 12.7 mph - N/A   Clear
5:55 PM 87.8 °F 86.1 °F 55.4 °F 33% 29.71 in 10.0 mi SSW 10.4 mph - N/A   Clear
6:15 PM 84.2 °F 83.5 °F 57.2 °F 40% 29.71 in 10.0 mi South 8.1 mph - N/A   Clear
6:35 PM 84.2 °F 83.5 °F 57.2 °F 40% 29.70 in 10.0 mi South 9.2 mph - N/A Thunderstorm Clear
6:55 PM 84.2 °F 83.5 °F 57.2 °F 40% 29.70 in 10.0 mi South 8.1 mph - N/A Thunderstorm Clear
7:15 PM 82.4 °F 82.0 °F 57.2 °F 42% 29.69 in 9.0 mi South 13.8 mph 19.6 mph N/A Thunderstorm Scattered Clouds
7:35 PM 82.4 °F 82.0 °F 57.2 °F 42% 29.70 in 10.0 mi SSW 11.5 mph 17.3 mph N/A Thunderstorm Partly Cloudy
8:15 PM 75.2 °F - 60.8 °F 61% 29.74 in 10.0 mi NNW 3.5 mph - N/A Thunderstorm Scattered Clouds
8:35 PM 71.6 °F - 60.8 °F 69% 29.74 in 10.0 mi West 4.6 mph - N/A   Partly Cloudy
8:55 PM 71.6 °F - 60.8 °F 69% 29.76 in 10.0 mi Calm Calm - N/A   Clear
9:15 PM 69.8 °F - 60.8 °F 73% 29.77 in 10.0 mi SSW 5.8 mph - N/A   Clear
9:35 PM 69.8 °F - 60.8 °F 73% 29.78 in 10.0 mi SSW 6.9 mph - N/A   Clear
10:15 PM 64.4 °F - 57.2 °F 77% 29.78 in 10.0 mi East 8.1 mph - N/A   Clear
10:35 PM 64.4 °F - 59.0 °F 83% 29.77 in 10.0 mi ESE 5.8 mph - N/A   Clear
10:55 PM 64.4 °F - 59.0 °F 83% 29.76 in 10.0 mi Calm Calm - N/A   Clear
11:35 PM 60.8 °F - 55.4 °F 82% 29.77 in 0.2 mi Calm Calm - N/A   Unknown
11:55 PM 62.6 °F - 57.2 °F 82% 29.77 in 7.0 mi Calm Calm - N/A   Clear